www.pogodaiklimat.ru

Погода и климат >> Архив погоды >> Финляндия >> Эспо Тапиола


ПОГОДА в Эспо Тапиола

  • Прогноз погоды в Эспо Тапиола
  • Монитор погоды в Эспо Тапиола

АРХИВ ПОГОДЫ в Эспо Тапиола

Время (UTC), дата Ветер
(напр.,м/с)
 
Видим.   Явления Облачность Т
(С)
Тd
(С)
f
(%)
Тe
(С)
Тes
(С)
Комфортность P
(гПа)
Po
(гПа)
Тmin
(С)
Tmax
(С)
R
(мм)
R24
(мм)
S
(см)
00 13.08 Ю 4 18 км 9/6 300 м
[]
+15.8 +15.3 97 +15 +15 1009.4 1008.5
03 13.08 Ю 4 14 км 9/9 200 м
[]
+15.8 +15.2 96 +15 +15 1008.2 1007.3
06 13.08 Ю 4 18 км 10/10 200 м
[]
+16.7 +15.1 90 +16 +16 1008.3 1007.4 +13.8 +17.1
09 13.08 Ю 5 20 км 5/5 300 м
[]
+19.3 +15.2 77 +21 +23 комфорт 1007.7 1006.8
12 13.08 Ю 5 25 км 8/8 300 м
[]
+20.6 +15.0 70 +23 +24 комфорт 1007.2 1006.3
15 13.08 ЮЗ 5 29 км ясно +20.6 +12.2 59 +23 +24 комфорт 1006.6 1005.7
18 13.08 ЮЗ 5 25 км ясно +17.7 +13.1 74 +17 +17 1006.9 1006.0 +16.7 +21.6
21 13.08 ЮЗ 3 19 км 3/0
[]
+14.4 +13.7 96 +13 +13 1007.4 1006.5
00 14.08 Ю 4 16 км 6/1 1500 м
[]
+14.9 +14.2 96 +14 +14 1006.8 1005.9
03 14.08 Ю 4 12 км 3/3 300 м
[]
+14.0 +13.7 98 +12 +12 1006.2 1005.3
06 14.08 ЮЗ 5 12 км ливневой дождь 10/10 200 м
[]
+15.2 +14.0 93 +14 +14 1006.4 1005.5 +13.8 +17.7 9
09 14.08 ЮЗ 6 40 км 6/1 600 м
[]
+17.8 +12.2 70 +17 +20 1006.9 1006.0
12 14.08 ЮЗ 10 30 км 4/4 1000 м
[]
+19.4 +10.0 55 +20 +20 1007.4 1006.6
15 14.08 ЮЗ 7 35 км 5/5 1000 м
[]
+18.0 +10.5 62 +17 +18 1007.6 1006.7
18 14.08 ЮЗ 6 35 км ясно +15.8 +9.7 67 +14 +14 1008.1 1007.2 +15.2 +20.0 0.4
21 14.08 ЮЗ 3 27 км ясно +12.5 +10.9 90 +11 +11 1007.6 1006.7
00 15.08 ЮЗ 4 27 км в посл. час дождь 9/3 600 м
[]
+13.2 +12.4 95 +11 +11 1006.8 1005.9
03 15.08 ЮЗ 4 30 км 8/6
[]
+13.7 +11.6 87 +12 +12 1006.6 1005.7
06 15.08 З 3 30 км 1/1 2000 м
[]
+15.1 +10.9 76 +14 +17 1007.0 1006.1 +11.7 +15.8 0.1
09 15.08 З 5 40 км 6/6 600 м
[]
+16.5 +10.4 67 +16 +18 1007.4 1006.5
12 15.08 ЮЗ 6 40 км 1/1 1000 м
[]
+19.1 +6.7 44 +19 +22 1008.3 1007.4
15 15.08 З 5 45 км 1/1 1500 м
[]
+19.7 +5.9 40 +20 +22 1009.3 1008.5
18 15.08 З 4 45 км ясно +17.1 +6.3 49 +17 +17 1011.0 1010.1 +15.1 +20.5
21 15.08 ЮЗ 4 45 км ясно +14.1 +10.1 77 +13 +13 1012.7 1011.8
00 16.08 ЮЗ 2 20 км ясно +9.7 +9.5 99 +8 +8 1013.3 1012.4
03 16.08 ЮЗ 2 18 км ясно +8.2 +8.1 99 +6 +6 1013.7 1012.8
06 16.08 Ю 5 25 км 4/3 300 м
[]
+16.8 +12.8 77 +16 +17 1014.3 1013.4 +8.1 +17.1
09 16.08 Ю 4 28 км 9/3 300 м
[]
+18.0 +14.2 78 +18 +20 1014.9 1014.0
12 16.08 Ю 5 30 км 9/9
[]
+18.8 +14.3 75 +19 +20 1015.2 1014.3
15 16.08 ЮЗ 3 35 км 10/10
[]
+19.0 +9.3 53 +20 +20 1015.1 1014.2
18 16.08 Ю 3 30 км 10/10 2000 м
[]
+16.6 +13.7 83 +16 +16 1015.3 1014.4 +16.6 +20.6
21 16.08 ЮВ 3 30 км слаб. ливневой дождь 10/10
[]
+16.8 +15.0 89 +17 +17 1015.3 1014.4
00 17.08 ЮВ 3 35 км 6/6
[]
+16.1 +14.4 90 +16 +16 1015.0 1014.1
03 17.08 Ю 4 40 км 9/9 2000 м
[]
+16.6 +13.4 81 +16 +16 1014.4 1013.5
06 17.08 Ю 4 28 км 5/1 300 м
[]
+16.8 +14.3 85 +16 +18 1014.7 1013.8 +15.7 +17.0
09 17.08 Ю 4 30 км 9/9 300 м
[]
+18.4 +14.7 79 +19 +19 1015.3 1014.4
12 17.08 Ю 4 27 км 6/6
[]
+20.8 +14.3 66 +24 +26 комфорт 1015.0 1014.1
15 17.08 ЮВ 4 30 км 1/1
[]
+19.7 +14.3 71 +22 +23 комфорт 1014.2 1013.4
18 17.08 ЮВ 2 30 км ясно +17.2 +14.8 86 +18 +18 1013.9 1013.0 +16.7 +21.5
21 17.08 Ю 4 40 км 9/9
[]
+18.4 +14.6 79 +19 +19 1013.6 1012.7
00 18.08 Ю 3 30 км 4/4
[]
+16.1 +14.1 88 +16 +16 1013.3 1012.4
03 18.08 Ю 4 35 км 4/4
[]
+15.5 +13.4 87 +15 +15 1012.7 1011.8
06 18.08 ЮВ 4 30 км 6/6
[]
+18.1 +13.6 75 +18 +19 1012.5 1011.6 +15.1 +18.5
09 18.08 ЮВ 6 35 км 9/9 2000 м
[]
+18.9 +13.2 69 +19 +20 1012.1 1011.2
12 18.08 В 5 35 км 9/9 1500 м
[]
+20.8 +11.6 56 +23 +23 комфорт 1011.7 1010.8
15 18.08 В 6 35 км 8/5 2000 м
[]
+19.7 +11.6 60 +21 +21 комфорт 1010.8 1009.9
18 18.08 В 4 29 км 9/9 1500 м
[]
+18.5 +13.5 73 +19 +19 1010.0 1009.1 +17.2 +22.0
21 18.08 ЮВ 6 40 км 9/3 1500 м
[]
+18.6 +13.1 70 +19 +19 1009.2 1008.3
00 19.08 ЮВ 4 30 км в посл. час дождь 9/9
[]
+17.3 +13.8 80 +17 +17 1007.7 1006.8
03 19.08 ЮВ 4 10 км дождь 10/10 1500 м
[]
+15.8 +14.9 94 +15 +15 1006.4 1005.5
06 19.08 ЮВ 5 2600 м сильн. дождь 10/10 1000 м
[]
+15.5 +15.1 97 +14 +14 1005.9 1005.0 +15.5 +18.8 7
09 19.08 Ю 4 4400 м морось 10/10 200 м
[]
+16.6 +16.0 96 +16 +16 1006.0 1005.1
12 19.08 ЮЗ 6 40 км 9/9 300 м
[]
+19.4 +16.1 81 +21 +21 комфорт 1008.3 1007.4
15 19.08 ЮЗ 6 35 км 6/6 600 м
[]
+19.1 +14.0 72 +20 +20 1010.4 1009.6
18 19.08 ЮЗ 4 40 км 1/1 600 м
[]
+16.7 +13.8 83 +16 +16 1012.1 1011.2 +15.5 +20.0 2
21 19.08 ЮЗ 4 28 км ясно +15.1 +13.2 88 +14 +14 1013.6 1012.7

 

Местоположение метеостанции Эспо Тапиола (Финляндия): широта 60.18 долгота 24.79 высота над уровнем моря 8 м.

В архиве по умолчанию представлена погода в Эспо Тапиола за последнюю неделю. Архивные данные за месяц целиком и за предыдущие месяцы, начиная с января 2011 года, Вы можете получить, выбрав интересующий диапазон дат из раскрывающегося списка и нажав кнопку "Ввод!".


*Определитесь, кто Вы:
робот инопланетянин человек

Внимание! Время в таблицах - всемирное. Для получения местного времени необходимо прибавить поправку, которая равна 1 ч.

Смотрите также архив погоды в соседних городах и на ближайших метеорологических станциях:

Погода в Хельсинки Кайсаниеми (Финляндия) (8 км)
Погода в Хельсинки университете (Финляндия) (10 км)
Погода на Острове Хармая (Финляндия) (14 км)
Погода в Эспо Нууксио (Финляндия) (17 км)
Погода в Хельсинки (Финляндия) (19 км)
Погода на Хельсинском маяке (Финляндия) (27 км)
Погода в Вихти (Финляндия) (34 км)
Погода в Нурмиярви (Финляндия) (38 км)
Погода на Острове Мякилюото (Финляндия) (38 км)
Погода в Лохья Порла (Финляндия) (41 км)

Пояснения к столбцам:

Ветер - указаны скорость ветра в м/с - средняя за 10 мин, порывы в срок и между сроками (в фигурных скобках) и направление, откуда дует ветер: С - северный, СВ - северо-восточный, В - восточный, ЮВ - юго-восточный, Ю - южный, ЮЗ - юго-западный, З - западный, СЗ - северо-западный.
Видимость - горизонтальная дальность видимости в метрах или километрах. При видимости от 1 до 10 км при отсутствии осадков обычно наблюдается дымка, при ухудшении видимости до 1 км и менее - туман. В сухую погоду видимость может ухудшаться дымом, пылью или мглою.
Явления - указаны атмосферные явления, наблюдавшиеся в срок или в последний час перед сроком; фигурными скобками обозначены явления, наблюдавшиеся между сроками (за 1-3 часа до срока); квадратными скобками обозначены град или гололедные отложения с указанием их диаметра в мм.
Облачность - указаны через наклонную черту общая и нижняя облачность в баллах и высота нижней границы облаков в метрах; квадратными скобками обозначены формы облаков: Ci - перистые, Cs - перисто-слоистые, Cc - перисто-кучевые, Ac - высококучевые, As - высокослоистые, Sc - слоисто-кучевые, Ns - слоисто-дождевые, Cu - кучевые, Cb - кучево-дождевые. Подробнее классификацию облаков см. в Атласе облаков (PDF).
T - Температура воздуха - температура, измеренная на высоте 2 м над землей.
Td - Температура точки росы - температура, при понижении до которой содержащийся в воздухе водяной пар достигнет насыщения.
f - Относительная влажность воздуха - влажноcть воздуха, измеренная на высоте 2 м над землей.
Te - Эффективная температура - температура, которую ощущает одетый по сезону человек в тени. Характеристика душности погоды. При расчете учитывается влияние влажности воздуха и скорости ветра на теплоощущения человека.
Tes - Эффективная температура на солнце - температура, которую ощущает человек, с поправкой на солнечный нагрев. Характеристика знойности погоды. Зависит от высоты солнца над горизонтом, облачности и скорости ветра. Ночью, в пасмурную погоду, а также при ветре 12 м/с и более поправка равна нулю.
P - Атмосферное давление - приведенное к уровню моря атмосферное давление.
Po - Атмосферное давление - измеренное на уровне метеостанции атмосферное давление.
Tmin - Минимальная температура - минимум температуры воздуха на высоте 2 м над землей.
Tmax - Максимальная температура - максимум температуры воздуха на высоте 2 м над землей.
R - Количество осадков - Количество выпавших осадков за период времени, мм. При наведении курсора мыши на число - период времени, за который выпало указанное количество осадков.
R24 - Количество осадков - Количество выпавших осадков за 24 часа, мм.
S - Снежный покров - Высота снежного покрова, см. При наведении курсора мыши на число - состояние снежного покрова и степень покрытия местности в баллах.